Tracking 26544 objects as of 9-Dec-2022
HD Live streaming from Space Station
objects crossing your sky now

STARLINK-5119

Track STARLINK-5119 now!
10-day predictions
STARLINK-5119 is classified as:


NORAD ID: 53986
Int'l Code: 2022-125Y
Perigee: 423.1 km
Apogee: 425.3 km
Inclination: 53.2 °
Period: 92.9 minutes
Semi major axis: 6795 km
RCS: Unknown
Launch date: October 5, 2022
Source: United States (US)
Launch site: AIR FORCE WESTERN TEST RANGE (AFWTR)
aabbcc
Your satellite tracking list
Your tracking list is empty




NASA's NSSDC Master Catalog

Two Line Element Set (TLE):
1 53986U 22125Y   22342.91668981  .00006354  00000-0  11982-3 0  9996
2 53986  53.2172 135.8333 0001590  12.8124 301.4012 15.49881492 10443
Source of the keplerian elements: AFSPC